Temperature
6 6 6 5 4 4 4 4 3 3 2 2 2 2 2 2 2 2 2 2 2 2 2 2 2 2 2 2 2 3 3 3 3 3 4 5 5 5 5 5 5 5 5
5 5 4 3 3 3 3 3 2 2 2 2 2 2 1 1 1 1 1 1 1 1 2 2 2 2 2 2 2 2 2 2 3 3 3 4 4 5 5 5 5 5 5
3 3 3 2 2 2 2 2 2 2 2 2 2 2 2 1 1 1 1 1 1 1 1 2 2 2 2 2 2 2 2 2 3 3 3 4 4 4 4 4 4 4 4
2 2 2 2 1 1 2 2 2 2 2 2 2 2 2 2 1 1 1 1 1 2 2 2 2 2 2 2 2 2 3 3 3 3 3 3 3 3 4 4 4 4 4
1 1 1 1 1 1 2 2 2 2 2 2 2 2 1 1 1 1 1 1 1 2 2 2 2 2 2 2 2 2 2 3 3 3 3 3 3 3 4 4 4 3 3
1 1 1 1 1 2 2 2 2 1 1 1 1 1 1 0 -0 0 0 0 1 2 2 2 2 2 2 2 2 2 3 3 3 3 3 3 3 3 3 4 4 3 2
1 1 1 1 2 2 2 2 2 1 1 1 0 -0 -0 -1 -1 -1 -0 0 1 1 2 2 2 2 2 2 3 3 4 3 3 3 4 4 4 3 4 3 3 3 2
1 1 1 2 2 2 2 2 1 1 1 1 0 -0 -1 -1 -2 -1 -0 0 1 1 2 2 2 1 1 2 3 4 4 4 4 3 4 4 4 4 4 4 3 2 1
2 2 2 2 2 2 2 2 1 1 1 1 -0 -1 -1 -1 -2 -2 -1 -0 0 1 1 1 1 1 1 2 3 4 4 4 4 4 4 4 4 4 4 3 3 2 0
2 2 2 2 2 2 2 1 1 1 1 0 -0 -1 -1 -2 -2 -2 -1 -1 -0 0 1 1 1 1 1 2 3 3 4 4 4 4 4 3 3 3 3 4 3 2 -0
2 2 2 2 2 2 2 2 1 1 1 0 -1 -1 -2 -2 -2 -2 -2 -2 -1 -0 0 1 1 1 1 1 2 3 3 3 3 4 3 2 2 2 2 2 2 2 1
2 2 2 2 2 2 2 2 1 1 1 0 -0 -1 -2 -2 -3 -3 -3 -2 -1 -1 0 1 1 1 1 0 1 1 2 3 3 3 2 2 1 1 1 2 1 1 1
3 3 3 3 2 2 2 2 2 1 1 1 -0 -1 -2 -3 -3 -3 -3 -3 -2 -1 0 1 1 1 1 0 0 1 1 1 2 1 1 1 1 1 1 1 0 -0 -1
4 4 3 3 3 3 2 2 2 1 -0 -0 -0 -1 -2 -3 -3 -4 -3 -3 -2 -1 -0 1 1 1 1 0 -0 0 0 0 1 1 1 1 1 1 1 1 -0 -1 -1
4 4 4 4 4 3 3 2 1 -0 -1 -1 -2 -2 -3 -3 -4 -4 -4 -4 -3 -2 -1 0 1 1 1 0 -0 -0 -0 0 0 0 0 0 0 0 -0 -1 -1 -1 -1
4 4 4 4 4 4 3 3 2 1 -0 -1 -2 -3 -3 -4 -4 -4 -4 -4 -3 -2 -1 -1 -0 0 0 0 0 -0 -0 -0 -0 -0 -0 -0 -0 -1 -1 -1 -1 -1 -1
4 4 4 4 4 3 3 3 3 2 0 -1 -2 -3 -4 -4 -4 -4 -4 -5 -4 -3 -2 -2 -1 -0 0 0 0 0 0 -0 -0 -0 -0 -1 -1 -1 -1 -1 -1 -1 -1
4 4 4 4 3 3 3 2 2 2 1 -0 -2 -3 -4 -4 -4 -4 -4 -4 -4 -4 -3 -2 -2 -1 -0 0 0 0 0 -0 -1 -1 -1 -1 -1 -1 -1 -1 -1 -1 -1
4 4 3 3 3 3 2 2 2 1 0 -1 -2 -3 -4 -4 -4 -4 -4 -4 -4 -4 -4 -3 -2 -1 -0 0 1 0 0 -0 -1 -1 -1 -1 -1 -1 -1 -1 -1 -1 -0
4 3 2 3 3 2 2 1 1 0 -1 -2 -3 -4 -4 -4 -4 -4 -4 -4 -4 -4 -4 -3 -2 -1 -1 -0 0 1 0 0 -0 -0 -0 -0 -0 -0 -1 -1 -1 -1 -0
4 3 2 3 2 1 1 1 0 -1 -2 -3 -3 -4 -4 -4 -4 -4 -4 -4 -4 -3 -3 -3 -2 -1 -1 -0 0 1 1 0 0 0 0 -0 -0 -0 -0 -0 -0 -1 -1
3 3 2 2 1 0 0 -0 -1 -2 -2 -3 -3 -4 -4 -4 -4 -4 -3 -3 -3 -3 -3 -3 -2 -1 -1 -0 0 1 1 1 0 0 0 0 -0 -0 -0 -0 -0 -0 -0
3 3 2 1 1 0 -0 -1 -1 -2 -3 -3 -3 -4 -4 -4 -3 -3 -3 -3 -3 -3 -2 -2 -2 -1 -1 -0 -0 0 1 1 1 1 0 0 0 -0 -0 -0 -0 -0 0
3 2 2 1 1 -0 -1 -1 -2 -3 -3 -3 -4 -4 -4 -3 -3 -3 -3 -2 -2 -2 -2 -2 -1 -1 -1 -0 0 0 1 1 0 0 1 0 0 -0 -0 -0 -0 0 0
3 2 2 1 0 -0 -1 -1 -2 -3 -3 -3 -3 -3 -3 -3 -3 -2 -2 -2 -2 -1 -1 -1 -1 -0 -0 0 0 1 0 0 0 0 1 0 0 0 0 0 0 0 0
2 2 1 1 0 -1 -1 -2 -2 -3 -3 -3 -3 -3 -3 -3 -2 -2 -2 -2 -1 -1 -1 -1 -0 -0 0 0 0 0 0 0 0 1 1 1 0 0 0 0 0 0 0
Wind_Speed
12 12 13 13 14 15 15 15 14 14 14 14 14 14 14 13 13 13 13 14 14 15 14 14 15 14 12 11 11 12 12 12 15 13 12 11 11 7 5 7 7 6 10
14 14 14 14 14 15 15 14 13 13 12 12 12 12 12 12 12 13 13 13 13 14 15 15 16 13 14 12 12 13 13 13 14 14 11 9 7 4 8 9 7 7 9
15 16 16 15 14 14 13 13 12 12 12 13 13 13 12 12 13 12 12 13 14 14 14 15 15 15 15 13 13 13 12 12 11 11 10 5 1 4 9 9 9 8 9
15 16 15 14 13 12 12 11 11 11 13 14 14 14 14 13 12 13 14 15 16 16 15 14 14 14 15 15 13 13 12 12 11 10 9 5 4 7 8 8 8 8 9
14 14 13 13 12 10 10 10 10 12 13 13 14 13 13 10 13 16 16 17 17 16 15 14 14 17 20 17 14 12 11 10 10 9 8 6 6 9 8 7 11 10 11
11 11 11 11 11 10 10 10 10 11 12 13 13 14 13 11 17 21 19 17 17 16 15 15 16 17 19 23 23 20 16 12 11 10 8 8 10 10 9 11 11 9 6
10 11 11 11 11 10 10 10 10 11 12 13 13 14 13 13 18 22 24 19 15 13 14 14 14 16 20 18 19 18 15 16 14 9 8 10 13 13 13 11 9 10 10
10 10 11 11 10 10 10 10 11 11 12 12 12 13 13 13 17 22 28 17 13 13 12 14 15 17 17 20 15 10 8 10 13 9 6 11 13 15 13 15 18 16 14
10 10 10 10 10 11 11 11 11 11 12 13 12 13 14 14 16 21 27 14 14 15 13 14 16 16 20 23 14 7 2 6 8 9 9 14 18 21 20 17 16 15 14
9 8 7 8 10 11 11 11 11 11 12 13 13 14 15 16 15 18 24 14 14 14 13 14 16 19 21 21 13 9 4 8 11 14 16 19 19 19 17 16 16 16 16
6 6 6 8 9 10 11 11 11 11 11 11 12 13 14 16 18 18 20 15 15 14 12 12 13 21 18 18 15 12 10 10 14 16 16 16 14 12 10 10 8 10 14
5 5 7 8 9 10 12 11 9 11 11 11 11 12 12 14 16 18 19 16 18 14 11 11 13 19 15 15 14 16 16 12 12 14 14 13 12 11 11 11 11 10 12
7 7 8 9 9 11 12 11 9 10 11 12 12 12 12 13 15 19 18 18 19 15 12 16 17 17 12 10 16 17 13 9 10 12 13 12 11 13 14 14 16 13 14
9 8 8 9 9 10 9 10 9 10 12 13 14 13 13 13 15 16 15 16 17 15 13 13 13 14 12 10 11 12 11 10 9 11 12 13 13 13 14 13 13 12 12
8 8 8 8 9 9 8 5 7 8 8 10 13 14 12 13 15 18 15 14 14 15 13 10 11 12 11 9 9 10 10 10 11 11 12 13 13 13 13 11 11 13 14
9 9 8 8 9 9 11 9 3 4 8 7 10 13 12 12 14 17 19 15 17 20 12 10 11 11 11 10 8 9 9 10 10 10 11 12 13 14 13 11 13 13 14
9 9 9 10 10 11 11 11 10 2 9 8 11 14 14 14 15 16 18 16 14 15 11 11 10 10 10 10 8 6 8 9 9 10 11 12 13 13 12 13 14 14 14
10 9 10 10 10 11 11 11 10 11 9 8 10 15 15 14 13 16 16 13 11 12 11 10 10 10 9 9 8 6 8 9 10 10 10 12 12 12 12 13 13 15 14
11 11 10 10 10 11 11 11 11 11 11 11 12 13 14 13 12 14 13 10 9 9 10 10 9 9 9 9 8 6 7 9 11 10 10 11 10 10 11 13 13 14 13
8 9 11 10 10 11 11 11 11 12 12 12 12 13 13 12 11 11 10 10 9 8 8 9 9 9 9 9 9 7 6 7 10 10 9 9 9 8 11 14 13 12 12
9 8 8 10 11 12 11 12 12 12 13 12 11 13 14 10 10 11 10 10 9 8 8 8 8 9 9 8 8 7 5 6 6 8 9 9 9 9 9 11 12 12 13
9 9 10 11 11 11 11 12 12 13 14 13 12 12 14 11 10 10 10 10 9 8 7 7 7 7 7 7 7 6 5 6 6 6 7 8 9 11 11 10 11 13 13
10 10 11 11 11 10 11 13 13 13 13 13 13 12 11 11 11 11 11 10 10 9 8 7 7 7 7 7 6 5 4 4 5 7 9 9 10 10 11 11 13 14 14
10 11 11 11 11 11 12 13 13 13 13 13 13 12 11 11 11 12 12 11 10 9 10 9 7 9 11 9 7 6 4 5 4 5 10 11 10 11 11 12 13 14 14
10 11 11 11 11 11 12 13 13 13 13 12 12 12 12 12 12 12 12 12 12 11 12 12 11 11 12 12 10 9 11 10 7 6 10 9 11 11 11 12 12 13 14
11 11 11 11 11 11 12 12 13 13 12 12 12 12 12 12 12 13 13 13 13 12 12 14 17 18 18 15 15 15 15 13 12 9 8 9 10 10 10 10 13 13 15
Wind_Direction
339 333 327 323 319 315 312 314 317 316 316 315 318 319 317 314 312 309 305 303 302 301 298 293 288 284 280 275 270 266 262 259 264 265 269 279 281 254 147 117 100 76 53
332 326 321 319 318 318 320 322 321 320 319 316 315 321 323 319 316 313 308 308 307 305 302 298 292 288 281 277 270 263 258 254 256 262 265 271 259 196 135 116 101 80 62
330 326 325 324 326 327 328 328 324 318 314 315 321 320 317 314 312 309 306 306 303 300 298 297 296 292 287 282 276 266 257 253 247 249 251 237 164 135 126 110 93 76 64
337 333 332 333 333 330 325 318 312 313 317 323 323 320 317 318 327 329 318 305 298 297 296 297 298 295 290 289 287 275 257 245 241 239 238 214 157 147 138 123 99 77 66
344 339 336 331 324 318 313 313 320 327 333 337 336 336 335 340 358 342 327 313 307 306 310 314 309 301 297 299 296 286 268 242 229 227 223 195 163 159 149 128 112 97 73
347 340 332 326 322 320 322 331 340 348 350 347 346 343 343 1 357 343 334 318 308 310 321 324 318 310 313 310 300 288 269 242 221 214 210 185 168 157 142 135 128 119 91
347 341 336 334 332 335 341 352 357 353 349 346 348 349 347 7 1 345 338 320 308 319 332 330 324 321 320 317 304 288 264 236 219 210 204 176 165 156 146 134 106 97 103
348 347 347 352 357 2 6 4 355 351 351 351 356 356 352 7 5 350 341 326 332 338 344 337 331 329 332 330 313 289 245 212 202 204 207 172 159 149 138 123 115 107 98
355 356 2 8 10 9 8 4 1 355 358 358 3 359 357 360 4 353 347 341 346 344 346 344 341 340 340 342 341 334 192 163 157 144 127 128 129 131 130 125 122 116 110
13 13 12 9 4 2 0 355 355 356 359 358 2 1 356 354 358 355 349 352 347 342 345 346 344 347 347 354 2 6 62 122 120 111 109 112 121 126 126 131 133 129 127
11 11 6 357 354 352 348 347 349 352 355 358 3 0 356 352 354 356 349 357 349 341 347 346 342 345 355 3 13 28 45 96 110 112 112 115 116 111 102 100 107 128 132
340 342 345 345 344 345 341 342 348 352 353 359 1 0 357 354 353 351 343 349 348 347 350 344 341 344 3 19 29 33 44 78 103 110 115 118 117 111 103 100 96 92 111
322 331 336 337 338 343 344 348 357 4 0 0 0 3 1 359 355 352 348 354 355 351 349 344 343 353 10 32 34 37 46 71 97 107 111 113 111 109 105 103 104 107 112
319 327 328 329 339 350 356 2 5 12 6 2 2 3 4 3 2 358 356 358 355 353 347 341 348 9 20 33 45 53 56 62 83 100 106 110 111 110 109 112 116 121 120
336 333 333 341 352 346 0 9 13 40 34 15 10 2 6 5 3 356 360 3 357 349 343 1 15 16 16 27 54 65 67 71 80 93 105 110 111 111 113 115 118 118 115
3 2 357 359 1 356 357 5 105 94 128 95 54 23 18 9 349 355 356 353 350 345 357 14 14 14 13 15 39 69 74 77 80 90 100 107 112 116 119 121 120 118 118
8 9 357 4 1 0 0 358 2 93 155 118 71 39 15 3 1 355 350 348 355 353 13 16 10 10 10 9 12 53 83 88 89 92 102 110 116 119 121 123 124 124 126
7 22 3 6 2 2 1 1 2 1 7 10 39 40 13 8 9 1 351 353 14 14 12 11 7 3 6 7 9 42 93 97 99 99 101 108 117 121 123 124 127 130 130
21 13 6 6 7 9 7 7 9 10 12 13 10 12 8 8 11 4 2 12 11 9 2 2 5 0 2 5 8 34 96 107 111 106 99 103 114 120 123 126 126 125 126
52 38 4 9 16 15 15 14 14 15 18 20 19 13 5 10 11 6 6 5 4 2 358 355 359 0 1 5 9 27 87 112 119 120 113 106 110 116 124 129 129 126 118
31 36 19 21 25 19 18 18 18 22 24 23 24 23 8 11 9 2 360 359 359 358 356 353 355 357 1 4 8 19 64 116 119 121 122 123 124 127 130 131 128 124 124
33 34 31 31 31 24 18 24 26 29 28 25 20 20 14 13 7 360 357 356 355 356 354 350 350 354 356 357 1 8 41 109 130 130 126 128 130 135 138 138 135 134 135
39 40 41 36 34 31 30 32 32 33 31 26 22 17 11 6 360 355 354 353 352 354 355 353 351 354 353 353 359 9 34 86 129 145 140 135 133 139 143 143 141 139 144
48 46 44 40 37 36 36 37 37 36 32 25 21 16 9 2 357 355 356 355 357 0 4 3 358 355 359 3 10 33 66 98 120 131 128 132 134 139 141 143 143 146 146
52 50 48 44 39 39 40 41 40 38 33 25 20 14 7 3 1 1 2 3 4 9 12 13 11 9 13 23 42 67 85 87 74 98 125 130 132 135 139 141 143 144 146
57 54 52 48 43 40 41 43 43 39 35 29 23 17 10 6 4 6 8 10 11 13 16 19 23 27 31 43 55 67 74 74 67 66 107 122 128 134 139 141 142 145 148
Height
1530 1525 1521 1517 1513 1509 1505 1501 1496 1491 1486 1482 1477 1472 1467 1463 1459 1455 1451 1448 1444 1440 1436 1432 1428 1426 1422 1419 1416 1414 1412 1411 1408 1408 1409 1409 1408 1408 1407 1406 1406 1406 1404
1525 1521 1516 1512 1508 1504 1500 1495 1491 1487 1482 1478 1473 1469 1464 1460 1455 1451 1447 1443 1439 1435 1430 1426 1422 1419 1415 1412 1408 1405 1403 1402 1402 1401 1402 1403 1402 1402 1402 1402 1403 1403 1402
1521 1516 1511 1507 1503 1499 1495 1491 1487 1483 1479 1476 1472 1467 1462 1457 1453 1448 1444 1440 1435 1431 1426 1421 1417 1412 1408 1404 1401 1397 1395 1394 1394 1395 1396 1397 1398 1399 1399 1400 1401 1401 1401
1516 1512 1507 1503 1499 1495 1492 1488 1485 1481 1478 1474 1469 1465 1460 1455 1451 1446 1441 1436 1431 1427 1422 1417 1411 1407 1402 1397 1393 1389 1387 1386 1387 1388 1390 1392 1394 1396 1397 1398 1399 1401 1401
1514 1509 1505 1502 1498 1494 1491 1488 1485 1481 1477 1473 1468 1463 1458 1453 1447 1442 1437 1432 1428 1423 1418 1412 1406 1401 1396 1390 1384 1380 1379 1378 1379 1382 1384 1387 1389 1392 1394 1396 1398 1401 1402
1513 1510 1506 1502 1498 1495 1492 1488 1484 1481 1476 1472 1466 1461 1456 1451 1445 1439 1433 1427 1423 1419 1414 1407 1401 1395 1388 1380 1374 1370 1369 1371 1373 1376 1379 1381 1384 1388 1392 1395 1398 1401 1404
1514 1510 1506 1502 1499 1496 1492 1489 1485 1481 1476 1471 1465 1460 1455 1449 1442 1436 1429 1423 1420 1416 1410 1403 1397 1389 1381 1371 1364 1361 1361 1363 1367 1372 1375 1378 1381 1385 1390 1395 1398 1401 1405
1514 1511 1507 1504 1501 1497 1494 1490 1486 1481 1476 1470 1465 1459 1454 1448 1441 1433 1426 1421 1417 1413 1407 1401 1394 1385 1375 1366 1358 1355 1355 1357 1362 1368 1372 1376 1380 1385 1390 1394 1398 1403 1408
1514 1511 1508 1505 1503 1499 1495 1491 1486 1482 1477 1471 1465 1460 1454 1448 1440 1432 1425 1420 1416 1411 1406 1400 1392 1383 1373 1364 1357 1353 1353 1355 1361 1366 1371 1375 1379 1384 1389 1394 1400 1404 1410
1514 1512 1509 1507 1504 1500 1496 1492 1487 1482 1477 1472 1466 1460 1454 1448 1441 1433 1426 1421 1415 1410 1405 1399 1392 1384 1375 1366 1359 1355 1354 1356 1361 1366 1372 1376 1380 1386 1392 1397 1401 1405 1411
1516 1513 1511 1508 1505 1501 1497 1492 1487 1483 1478 1472 1466 1461 1454 1448 1441 1434 1427 1422 1416 1412 1406 1400 1393 1386 1378 1370 1364 1360 1358 1360 1363 1368 1373 1378 1384 1390 1396 1401 1405 1408 1412
1517 1514 1511 1508 1505 1501 1496 1492 1487 1483 1478 1473 1467 1461 1454 1448 1441 1435 1428 1423 1417 1413 1408 1402 1395 1389 1383 1376 1370 1367 1365 1365 1368 1372 1377 1383 1389 1395 1400 1405 1409 1413 1418
1517 1515 1511 1508 1505 1501 1496 1492 1487 1483 1479 1473 1468 1461 1455 1448 1442 1435 1429 1423 1418 1414 1409 1404 1399 1393 1388 1382 1378 1375 1373 1373 1375 1378 1382 1388 1394 1399 1405 1410 1414 1419 1424
1517 1514 1511 1508 1505 1501 1496 1492 1488 1483 1479 1474 1468 1463 1456 1450 1442 1435 1430 1424 1418 1414 1410 1407 1403 1398 1393 1389 1385 1383 1382 1382 1383 1385 1389 1394 1400 1405 1410 1414 1419 1424 1429
1516 1514 1511 1508 1504 1500 1496 1491 1488 1483 1479 1475 1470 1464 1457 1451 1445 1438 1432 1425 1420 1416 1413 1410 1407 1403 1399 1396 1393 1391 1391 1391 1392 1394 1397 1401 1405 1410 1415 1420 1424 1429 1434
1517 1514 1511 1508 1504 1501 1497 1493 1487 1483 1479 1475 1470 1465 1459 1454 1447 1441 1434 1428 1423 1419 1416 1413 1411 1408 1405 1403 1401 1400 1399 1399 1400 1402 1404 1407 1411 1416 1421 1426 1431 1435 1440
1518 1515 1512 1508 1505 1501 1497 1493 1489 1485 1480 1476 1471 1466 1460 1454 1449 1442 1436 1431 1426 1421 1419 1417 1415 1413 1411 1410 1408 1408 1408 1408 1409 1410 1412 1415 1418 1423 1428 1433 1437 1441 1445
1519 1516 1513 1510 1506 1502 1498 1494 1491 1487 1484 1480 1474 1467 1461 1456 1450 1444 1438 1434 1429 1425 1423 1421 1420 1418 1417 1415 1414 1414 1414 1414 1415 1417 1420 1422 1426 1429 1434 1439 1443 1447 1451
1520 1517 1514 1511 1507 1504 1500 1496 1492 1489 1485 1480 1475 1469 1463 1458 1453 1447 1442 1437 1434 1430 1427 1426 1425 1423 1422 1420 1420 1420 1420 1421 1422 1424 1427 1429 1433 1436 1440 1445 1449 1452 1456
1521 1518 1515 1513 1509 1505 1502 1498 1494 1491 1486 1482 1476 1471 1465 1460 1455 1450 1446 1442 1439 1435 1432 1430 1429 1428 1426 1425 1425 1425 1426 1427 1430 1432 1434 1436 1439 1443 1446 1450 1454 1457 1460
1525 1521 1518 1515 1512 1508 1504 1501 1497 1493 1489 1484 1480 1475 1469 1464 1460 1455 1451 1447 1443 1440 1437 1435 1433 1432 1431 1431 1430 1431 1431 1433 1435 1438 1440 1443 1445 1448 1451 1455 1458 1462 1464
1527 1524 1521 1518 1515 1510 1507 1504 1500 1496 1492 1487 1483 1478 1473 1468 1464 1460 1456 1452 1448 1445 1442 1440 1438 1437 1436 1435 1435 1436 1436 1438 1439 1442 1444 1447 1449 1452 1455 1459 1463 1466 1469
1530 1527 1524 1521 1518 1514 1511 1508 1504 1499 1495 1491 1486 1482 1477 1472 1468 1464 1460 1456 1452 1449 1446 1444 1443 1442 1441 1440 1439 1440 1441 1442 1444 1446 1449 1451 1453 1456 1459 1463 1466 1470 1474
1533 1530 1528 1525 1522 1519 1515 1512 1508 1504 1499 1495 1490 1486 1481 1477 1473 1469 1465 1461 1457 1454 1451 1449 1447 1446 1444 1443 1443 1444 1445 1447 1449 1451 1453 1455 1457 1460 1463 1466 1470 1473 1477
1536 1534 1531 1529 1526 1523 1520 1516 1512 1508 1504 1500 1495 1491 1487 1483 1479 1475 1471 1466 1463 1459 1457 1454 1452 1450 1448 1447 1447 1448 1450 1452 1454 1456 1458 1460 1462 1465 1468 1470 1473 1477 1480
1540 1537 1535 1533 1530 1527 1524 1521 1518 1514 1510 1506 1501 1497 1493 1489 1485 1481 1477 1473 1470 1466 1463 1461 1459 1456 1455 1454 1454 1454 1456 1458 1460 1461 1463 1464 1466 1469 1471 1474 1477 1480 1483